Texas Shootout - HAND INVENTORY

Station: HAND INVENTORY - T Race

Distance: 1 Miles

Release: 10-Jul-2017 07:30

Weather Release:    Arrival:

Wind at Release:     Wind at Arrival:

Temp at Release: °    Temp at Arrival: °

Lofts: 162

Birds: 1023

Clocked: 984

Good Luck to Everyone!
Drops Pos Breeder Pigeon Name Color Sex Ent Arrival Speed To Win Eligible
501 Dream Union - DC 1184-IF17-SLP BC C 1 10:36:45.61 9.424 02:31:51 Yes
502 Wessel Family Lofts - CA 1466-AU17-ARC BB H 1 10:36:55.13 9.416 02:32:00 Yes
503 Liqingni Loft - NY 0287-AU17-YANG BB H 2 10:37:03.83 9.409 02:32:09 Yes
504 Racing Pigeon Mall - WA 0709-AU17-RPM BB C 4 10:37:12.58 9.401 02:32:18 Yes
505 Tony Alvarado - TX 0062-AU17-WETT BC H 5 10:37:23.66 9.392 02:32:29 Yes
506 West Wing Syndicate - TX 1164-AU17-WWC BKSP H 4 10:37:37.58 9.380 02:32:43 Yes
507 Chinese Union 2 - VA 0100-AU17-CHAN BB C 2 10:37:47.72 9.372 02:32:53 Yes
508 Bynum Family Lofts - TX 0202-AU17-BFL BBPD H 7 10:37:58.34 9.363 02:33:04 Yes
509 Band Of Brothers - TX 0802-AU17-DEN BB H 5 10:38:07.24 9.356 02:33:12 Yes
510 Marengo Creek Farms - AL 2758-AU17-MCF BB H 8 10:38:17.34 9.347 02:33:23 Yes
511 Zheng Loft - FL 0118-AU17-LIN BB H 2 10:38:26.70 9.340 02:33:32 Yes
512 Chen Loft - PA 0286-AU17-LU BC H 1 10:38:38.56 9.330 02:33:44 Yes
513 Dave Byer - CA 5718-AU17-ARPU BB C 3 10:38:48.58 9.322 02:33:54 Yes
514 Yong Bi - TX 59031-AU17-ARPU BC H 1 10:38:58.36 9.314 02:34:03 Yes
515 Tepa - TX 0287-AU17-DEN BC H 5 10:39:08.39 9.305 02:34:14 Yes
516 Neighbor Hood Bullies - TX 0578-AU17-WF SLT H 7 10:39:22.08 9.294 02:34:28 Yes
517 Floating Feather Loft - TX 1343-AU17-CVL BB C 2 10:39:34.86 9.284 02:34:40 Yes
518 Double B S Loft - CA 0600-AU17-AUB BC H 1 10:39:45.14 9.275 02:34:51 Yes
519 Chen Loft - PA 1081-AU17-TFC BBPD H 2 10:39:55.75 9.267 02:35:01 Yes
520 Little Reata Loft - TX 17330-AU17-JETT BB H 7 10:40:04.47 9.260 02:35:09 Yes
521 Bryan Maier - PA 7276-IF17-DVC BB C 2 10:40:17.56 9.249 02:35:23 Yes
522 Carroll Hoover - PA 1130-IF17-RLPC SIL C 2 10:40:27.59 9.241 02:35:33 Yes
523 Tex-Mex Loft - TX 0624-AU17-NSL BC H 14 10:40:35.61 9.234 02:35:41 Yes
524 Chen Loft - PA 0127-AU17-TFC BC H 3 10:40:44.53 9.227 02:35:50 Yes
525 Fleet Washington - DC 1784-AU17-FLTW BC H 1 10:40:49.92 9.223 02:35:55 Yes
526 Drama Queen Loft - TX 1279-AU17-GCI BCWF H 2 10:41:02.24 9.213 02:36:08 Yes
527 K & J Loft - OK 1725-AU17-VK BB H 2 10:41:10.50 9.206 02:36:16 Yes
528 Aok Loft - NE 0970-AU17-OMHA BB C 5 10:41:20.64 9.198 02:36:26 Yes
529 ! ! ! S P E E D S - R A C E R S ! ! ! - FL 2686-AU17-SCHE BC H 2 10:41:31.83 9.189 02:36:37 Yes
530 Baptista - IL 0021-AU17-BAPT BBWF C 2 10:41:33.53 9.188 02:36:39 Yes
531 Cajun Express Loft - LA 0833-AU17-CEL BB H 2 10:41:52.63 9.173 02:36:58 Yes
532 Rodriquez & Aubone - TX 1799-AU17-TEJA BB C 9 10:42:02.49 9.165 02:37:08 Yes
533 The Firm - TX 0342-AU17-WWC Yipikaye BC H 3 10:42:12.66 9.157 02:37:18 Yes
534 Vick Corso - LA 1291-AU17-CRSO BC H 1 10:42:20.77 9.150 02:37:26 Yes
535 Vick Corso - LA 1293-AU17-CRSO BC C 2 10:42:30.84 9.142 02:37:37 Yes
536 Gossett & Son - TX 1022-AU17-WF DCWF H 4 10:42:52.63 9.125 02:37:58 Yes
537 Sky Dancer Loft - TX 0333-AU17-WWC Bolero BB H 1 10:43:05.91 9.115 02:38:11 Yes
538 Dave Byer - CA 5717-AU17-ARPU BB H 4 10:43:15.56 9.107 02:38:21 Yes
539 Da Dong - WI 1193-AU17-RRP BB C 2 10:43:24.16 9.100 02:38:30 Yes
540 Frank Martinez - CA 8201-AU17-FORT BC H 2 10:43:33.13 9.093 02:38:39 Yes
541 Steven Loft - TX 5868-AU17-ARPU BBPD H 1 10:43:42.89 9.086 02:38:48 Yes
542 Taj Syndicate - TX 11826-AU17-GHC BC C 2 10:43:52.27 9.078 02:38:58 Yes
543 Nemelka Racing Pigeon Loft - UT 7140-AU17-NRPL Florian x New Gaga BB C 1 10:44:07.22 9.067 02:39:12 Yes
544 Baden Feed - ON 7142-IF17-S BB C 2 10:44:20.59 9.056 02:39:26 Yes
545 Russell Hall - TX 7023-AU17-HALL BBSP H 5 10:44:30.97 9.048 02:39:37 Yes
546 Holleys Silver Star - TX 0938-AU17-DEN BC H 3 10:44:39.88 9.041 02:39:46 Yes
547 Wessel Family Lofts - CA 1455-AU17-ARC BBPD H 2 10:44:52.49 9.031 02:39:59 Yes
548 Clear Springs Loft - FL 17105-AU17-WARD BB H 1 10:45:03.17 9.023 02:40:09 Yes
549 Hugo Family Loft - IL 93088-IF17-E BB C 1 10:45:13.34 9.015 02:40:19 Yes
550 Taj Syndicate - TX 0095-AU17-EISN BC H 3 10:45:23.30 9.008 02:40:28 Yes
551 Da Dong - WI 0350-AU17-RAC BB H 3 10:45:30.39 9.002 02:40:36 Yes
552 Gossett & Son - TX 1006-AU17-WF BBWF C 5 10:45:39.75 8.995 02:40:45 Yes
553 English Syndicate - UK 12527-GB17-D BCWF C 4 10:45:59.67 8.980 02:41:05 Yes
554 Ecker/Murphy Syndicate - PA 1499-AU17-GSV DCWF H 5 10:46:01.22 8.979 02:41:06 Yes
555 Ecker/Murphy Syndicate - PA 1615-AU17-GSV BCSP H 6 10:46:16.67 8.967 02:41:22 Yes
556 King Rps Loft - CA 1451-AU17-FOYS BBWF H 1 10:46:25.55 8.960 02:41:31 Died
557 Cajun Express Loft - LA 0834-AU17-CEL BC H 3 10:46:39.97 8.949 02:41:46 Yes
558 New Orleans Boys 2 - LA 0349-AU17-MET DC H 7 10:46:48.11 8.943 02:41:54 Yes
559 Quest Syndicate - TX 16071-AU17-QS BB H 2 10:46:57.27 8.936 02:42:03 Yes
560 Relax & Barger - CA 0708-AU17-OBC BC C 2 10:47:09.61 8.927 02:42:15 Yes
561 Baudy Loft - LA 1290-AU17-CRSO BC C 1 10:47:24.69 8.915 02:42:31 Yes
562 Hollywood Honey - CA 0092-AU17-SD BB H 5 10:47:48.38 8.898 02:42:53 Yes
563 Da Dong - WI 0345-AU17-RAC BB H 4 10:47:49.83 8.897 02:42:55 Yes
564 Racine - WI 0595-AU17-RAC BLK H 4 10:48:09.22 8.882 02:43:15 Yes
565 Elton Dinga - TX 12149-AU17-AA BB H 33 10:48:10.38 8.881 02:43:16 Yes
566 Arandas Loft - TX 14366-AU17-ARPU BB H 1 10:48:28.84 8.867 02:43:35 Yes
567 Ecker/Murphy Syndicate - PA 2394-IF17-CVR BB H 7 10:48:46.31 8.854 02:43:52 Yes
568 Barry Venn - WY 1969-AU17-VENN BBWF C 3 10:48:55.49 8.848 02:44:00 Yes
569 Flying D Diva - TX 0141-AU17-FLYD BWFP H 3 10:48:58.58 8.845 02:44:04 Yes
570 Clear Springs Loft - FL 17112-AU17-WARD BC C 2 10:49:13.36 8.834 02:44:19 Yes
571 Robin & Brenda - TX 0344-AU17-WWC Otto COWF H 1 10:49:25.58 8.825 02:44:31 Yes
572 Chinese Union 2 - VA 5507-AU17-TONY BB H 3 10:49:37.20 8.817 02:44:42 Yes
573 Champ Camp - IN 0215-AU17-CAMP BC H 8 10:49:40.14 8.815 02:44:45 Yes
574 Chen Loft - PA 1705-AU17-CHEN BB C 4 10:49:56.95 8.802 02:45:03 Yes
575 Cuba Loft 2 - TX 36170-AU17-ARPU SPL C 3 10:50:05.99 8.796 02:45:11 Yes
576 Flying D Diva - TX 0197-AU17-FLYD DC H 4 10:50:29.34 8.779 02:45:34 Yes
577 Cuevas Classic - TX 0090-AU17-DAL Tony's Chocolate SIL H 1 10:50:39.27 8.771 02:45:45 Died
578 Dave Byer - CA 5722-AU17-ARPU BB H 5 10:50:51.89 8.762 02:45:58 Yes
579 Shiloft - PA 0074-IF17-MIN BC C 5 10:50:53.55 8.761 02:45:59 Yes
580 Highland Loft - NY 17157-AU17-DZ BB H 1 10:51:22.91 8.740 02:46:28 Yes
581 Ecker/Murphy Syndicate - PA 1614-AU17-GSV BB H 8 10:51:24.45 8.739 02:46:29 Yes
582 Ledet-Gutrz - LA 17235-AU17-LEDE BB H 2 10:51:52.99 8.718 02:46:58 Yes
583 Kwan Loft - CA 0790-AU17-KWAN BWFP C 3 10:51:54.39 8.717 02:47:00 Yes
584 Zhenyuan Guo - SC 0689-AU17-GUO BC H 2 10:52:10.75 8.705 02:47:16 Yes
585 English Syndicate - UK 3000-AU17-TEX DC H 5 10:52:14.05 8.703 02:47:19 Yes
586 Crowder Loft - TX 0738-AU17-GCI BB H 1 10:52:29.88 8.691 02:47:36 Yes
587 Sandstrom Brothers Loft - MN 0809-AU17-SBL DCPD H 1 10:52:45.50 8.680 02:47:51 Yes
588 Elton Dinga - TX 12105-AU17-AA BB H 34 10:52:47.02 8.679 02:47:53 Yes
589 Racing Pigeon Mall - WA 0711-AU17-RPM BB C 5 10:53:06.56 8.665 02:48:12 Yes
590 Da Dong - WI 0815-AU17-DONG BB C 5 10:53:23.74 8.653 02:48:29 Yes
591 King Rps Loft - CA 1453-AU17-FOYS BBWF C 2 10:53:25.75 8.652 02:48:31 Yes
592 Gossett & Son - TX 1021-AU17-WF BC H 6 10:53:40.58 8.641 02:48:46 Yes
593 Cajun Express Loft - LA 10962-AU17-AA BCPD H 4 10:53:51.49 8.633 02:48:58 Yes
594 Yong Bi - TX 59033-AU17-ARPU BC H 2 10:54:05.34 8.624 02:49:10 Yes
595 Kwan Loft - CA 6228-AU17-HIPT BB H 4 10:54:06.77 8.623 02:49:12 Yes
596 Two Cousins - LA 3072-AU17-BYOU DC H 1 10:54:27.19 8.608 02:49:33 Yes
597 Ecker/Murphy Syndicate - PA 2372-IF17-CVR BWFP H 9 10:54:28.61 8.607 02:49:35 Yes
598 Cuevas Classic - TX 0037-AU17-DAL Dark Knight DC H 2 10:54:50.25 8.592 02:49:56 Yes
599 Southern Legacy Loft - TX 2179-AU17-JOJO BC H 9 10:55:00.24 8.585 02:50:06 Yes
600 English Syndicate - UK 12529-GB17-D BB H 6 10:55:12.16 8.577 02:50:17 Yes

There are 1003 bird records

Note: These Race Results are unofficial and subject to change until verified by the Race Committee and declared final.